sat.trackr.live / text

‹ back to catalog

STARLINK-30221

NORAD 57418 · 2023-102Q

PAYLOAD ACTIVE UNKNOWN

§ Identity

Operator
Country
US
Launch date
2023-07-20
Launch site
AFWTR
Launch vehicle
Mass (kg)
RCS (m²)

Purposes: comms

External: N2YO · Heavens-Above · Gunter

§ Orbital elements

Epoch: 2026-05-24T09:36:20.311776Z

Period
94.27 min
Inclination
43.0002°
Eccentricity
0.0001449
Mean motion
15.27581727 rev/d
Perigee alt
482.0 km
Apogee alt
484.0 km
Semi-major
6,861.2 km
B*
7.8864e-5
RAAN
188.2781°
Arg perigee
266.7398°
Mean anomaly
93.3288°
Rev number
15,773

§ Raw data

STARLINK-302211 57418U 23102Q   26144.40023509  .00001909  00000+0  78864-4 0  99982 57418  43.0002 188.2781 0001449 266.7398  93.3288 15.27581727157731

JSON: /api/v1/satellites/57418 · /tle

For live sub-satellite position, see the globe view (requires WebGL).

§ Visibility from observer

Set your observer location to see the next 7 days of passes ≥ 10°. The values pass through the URL so the page stays shareable.

No JS? Fill the form by hand. The geolocation button needs JavaScript.